Location: Academy at Carrie F Thomas
(32.8490°N, 97.2053°W)
Time: 17:58:02
(UTC+00:00)

Meteor 1-25 Rocket - Pass Details

Date: 09 July 2022
Orbit: 835 x 893 km, 81.2° (Epoch: 18 August)

Event Time Altitude Azimuth Distance (km) Brightness Sun altitude
Exits shadow 08:01:00 42° 95° (E) 1,246 5.1 -31.0°
Maximum altitude 08:01:07 42° 92° (E) 1,245 5.1 -31.0°
Drops below altitude 10° 08:06:33 10° 23° (NNE) 2,556 7.6 -30.6°
Sets 08:09:07 0° 17° (NNE) 3,494 8.6 -30.3°
